Miscellaneous Local Product
Issued by NWS Hastings, NE

Home | Current Version | Previous Version | Graphics & Text | Print | Product List | Glossary On
Versions: 1 2 3 4 5 6 7 8 9 10 11 12 13 14 15 16 17 18 19 20 21 22 23 24 25 26 27 28 29 30 31 32 33 34 35 36 37 38 39 40 41 42 43 44 45 46 47 48 49 50
000
AXUS43 KGID 271502
MISGRI

GID CWA HOURLY WEATHER ROUNDUP
NATIONAL WEATHER SERVICE HASTINGS NE
1000 AM CDT MON MAR 27 2017

NOTE: "FAIR" INDICATES FEW OR NO CLOUDS BELOW 12,000 FEET WITH NO
SIGNIFICANT WEATHER AND/OR OBSTRUCTIONS TO VISIBILITY.

...SOUTH CENTRAL NEBRASKA...

CITY           SKY/WX    TMP DP  RH WIND       PRES   REMARKS
GRAND ISLAND   CLOUDY    44  42  93 N5        29.98R
HASTINGS       CLOUDY    44  42  93 E10       29.98S
KEARNEY        CLOUDY    45  37  76 CALM      29.98R
ORD            CLOUDY    44  39  82 W5        29.96S
YORK           PTSUNNY   43  43 100 E6        29.98S FOG
AURORA         CLOUDY    43  43  99 N5        29.98R
LEXINGTON      FOG       42  41  95 CALM      29.98R VSB 1/4
HOLDREGE       FOG       41  41  98 NE3       29.98R VSB 1/4
HEBRON         CLOUDY    44  43  96 N6        29.98S FOG

...NEBRASKA PANHANDLE...

CITY           SKY/WX    TMP DP  RH WIND       PRES   REMARKS
CHADRON        PTSUNNY   36  34  92 NE5       29.88F WCI  32
ALLIANCE       SUNNY     39  38  96 S6        29.90S WCI  35
SCOTTSBLUFF    SUNNY     39  34  82 SE6       29.92R WCI  35
SIDNEY         SUNNY     43  39  86 SW7       29.94R

...WESTERN AND NORTH CENTRAL NEBRASKA...

CITY           SKY/WX    TMP DP  RH WIND       PRES   REMARKS
VALENTINE      PTSUNNY   40  38  93 S8        29.95R WCI  34
AINSWORTH      CLOUDY    42  42 100 CALM      29.95S FOG
ONEILL         CLOUDY    43  38  80 CALM      29.98R
BROKEN BOW     CLOUDY    43  32  65 E3        29.96R
IMPERIAL       SUNNY     42  37  82 NW5       29.95R
NORTH PLATTE   FOG       39  37  92 CALM      29.96R VSB<1/4
MCCOOK         SUNNY     41  38  89 S5        29.96S

...EASTERN NEBRASKA...

CITY           SKY/WX    TMP DP  RH WIND       PRES   REMARKS
NORFOLK        CLOUDY    46  36  68 N3        29.97R
SO SIOUX CITY  CLOUDY    46  40  79 NE5       29.98S
TEKAMAH        CLOUDY    46  40  79 N7        29.98R
COLUMBUS       CLOUDY    45  39  81 N3        29.99R
ALBION         CLOUDY    46  40  81 CALM      29.97S
OMAHA EPPLEY   CLOUDY    46  39  76 N7        29.98R
OFFUTT AFB     CLOUDY    46  40  78 N7        29.97S
MILLARD        CLOUDY    47  43  85 N3        29.98S
LINCOLN        CLOUDY    46  41  82 N9        30.00R
NEBRASKA CITY  CLOUDY    45  43  93 N10       29.96R
BEATRICE       CLOUDY    45  44  96 N9        29.98R FOG
FALLS CITY     CLOUDY    47  43  86 N9        29.95R

...NORTHERN KANSAS...

CITY           SKY/WX    TMP DP  RH WIND       PRES   REMARKS
GOODLAND       SUNNY     46  41  82 W9        29.96R
HILL CITY      CLOUDY    43  41  93 E3        29.98S
NORTON         FOG       39  36  87 E5        29.97S VSB 0
PHILLIPSBURG   CLOUDY    45  45 100 CALM      29.99R
HAYS             N/A     47  44  90 E12       29.99R
RUSSELL        CLOUDY    48  44  86 NE8       29.97R
CONCORDIA      CLOUDY    46  45  96 N8        29.97R
SALINA         CLOUDY    50  46  86 N12       29.97S
TOPEKA         CLOUDY    48  47  96 N7        29.93R



USA.gov is the U.S. government's official web portal to all federal, state and local government web resources and services.